STARLINK-35928, 66528

Orbit data source: Space-Track

STARLINK-35928, 66528 is a payload satellite owned by SpaceX/Seattle (US) in LEO that was launched on Wed, 19 Nov 2025 UTC via an FALCON 9 launch vehicle from the Air Force Eastern Test Range (AFETR). Payload-class satellites include a variety of spacecraft equipped with specific instruments for various scientific and technological missions. These include communications satellites like Starlink; space stations such as the ISS; scientific satellites like the Hubble; Earth observation satellites from companies like Planet Labs, Umbra, and HawkEye 360; GPS; miniature CubeSats for education and research; and military/defense satellites.

Loading next visibility...
Identifier
66528, 2025-265N
Orbit
LEO
Country
Flag of USUS
Related business
Manufacturer
SpaceX/Seattle
Mission
Operational Commercial Communications
Bus & Motor
STARLINK V2MO, Unknown motor
Mass
575 kg wet, ~530 kg dry
Launch date (UTC)
2025-11-19 (7 months ago)
Launch vehicle
FALCON 9
Launch site
Air Force Eastern Test Range (AFETR)
Object type
Payload
Rocket body
Debris
Shape & HBR
Box + 2 Pan, 17.7 m
Radar Cross Section
36.964 m², Large (>1 m²)

Expand to show TLE details & history
Last TLE update: 19 hours ago

TLE from 19 hours ago
0 STARLINK-35928
1 66528U 25265N   26171.07391130  .00023310  00000-0  85429-3 0  9998
2 66528  43.0041  59.5577 0001378 244.4525 115.6184 15.27566284 32775
Epoch: 2026-06-20T01:46Z
TLE epoch observation values (Epoch: 2026-06-20T01:46:25.936Z)
Latitude
-0.00003°
Longitude
124.65584°
Altitude
483.275 km
Speed
7.625 km/s
True Right ascension
03h 58m 13s
True Declination
0° 00' 00"
Sunlit
Object was in daylight at epoch
Visualization orbit readout
Latitude
Unknown
Longitude
Unknown
Altitude
Unknown
Speed
Unknown
Apparent Right ascension
Unknown
Apparent Declination
Unknown
Sunlit
N/A
Visualization observer readout
Local Sidereal Time
07:12:10
Azimuth
Unknown
Elevation
Unknown
Doppler factor
Unknown
Orbital elements
Apogee altitude
485.98 km
Perigee altitude
484.089 km
Semi-major axis
6,863.172 km
Eccentricity
0.00014
Inclination
43.0041°
RAAN
59.5577°
Arg. of periapsis
244.4525°
True anomaly
115.63264°
Mean anomaly
115.6184°
Eccentric anomaly
115.62552°
Mean motion
3.8173 °/min
Orbital period
94.31 mins
BSTAR
0.00085429
Loading maneuver chart data...
Computing Atmospheric mass density...
Loading historical data...
Loading historical data...
Loading historical data...
Loading historical data...
Loading historical data...
Loading historical data...
Loading historical data...

Documentation

Showing up to 5 results
|